Regional Weather Roundup
Issued by NWS

Home | Current Version | Previous Version | Text Only | Print | Product List | Glossary Off
Versions: 1 2 3 4 5 6 7 8 9 10 11 12 13 14 15 16 17 18 19 20 21 22 23 24 25 26 27 28 29 30 31 32 33 34 35 36 37 38 39 40 41 42 43 44 45 46 47 48 49 50

000
ASUS44 KMEG 241610
RWRTN
TENNESSEE HOURLY STATE WEATHER ROUNDUP
NATIONAL WEATHER SERVICE MEMPHIS TN
1100 AM CDT MON JUL 24 2017

TNZ002-004-019-021-049-052-054-088>092-241700-
WEST TENNESSEE

CITY           SKY/WX    TMP DP  RH WIND       PRES   REMARKS
MEMPHIS INTL   PTSUNNY   86  73  65 W8        29.96S HX  93
NWS MEMPHIS      N/A     85 N/A N/A MISG        N/A
JACKSON        CLOUDY    83  74  74 CALM      29.96F
SOMERVILLE       N/A     86  73  66 NW6       29.95F HX  93
COVINGTON      SUNNY     82  73  74 CALM      29.96S
UNION CITY     SUNNY     82  75  78 CALM      29.95S
BOLIVAR        SUNNY     86  72  62 CALM      29.96S HX  92
PARIS          SUNNY     82  73  74 VRB3      29.96S
HUNTINGDON     SUNNY     82  73  74 VRB3      29.96S
LEXINGTON      SUNNY     82  73  74 S6        29.97S
SELMER         PTSUNNY   82  75  78 CALM      29.97S
SAVANNAH       SUNNY     84  75  74 S3        29.96F HX  92
$$

TNZ008-025-027-028-033-062-065-066-241700-
NORTH MIDDLE TENNESSEE

CITY           SKY/WX    TMP DP  RH WIND       PRES   REMARKS
NASHVILLE      PTSUNNY   85  70  60 SE3       29.98S
PORTLAND       SUNNY     84  73  70 SW3       29.97S HX  91
CLARKSVILLE    PTSUNNY   84  73  69 CALM      29.96S HX  90
SMYRNA         MOSUNNY   84  72  67 CALM      29.99S
COOKEVILLE     SUNNY     81  70  69 S5        30.00S
GALLATIN       SUNNY     82  72  69 S5        30.00S
CROSSVILLE     MOSUNNY   79  68  69 CALM      30.06R
$$

TNZ061-075-076-078-094-096-097-241700-
SOUTH MIDDLE TENNESSEE

CITY           SKY/WX    TMP DP  RH WIND       PRES   REMARKS
FAYETTEVILLE   MOSUNNY   81  72  74 SW3       30.00S
TULLAHOMA      SUNNY     82  68  61 CALM      30.02S
WINCHESTER     SUNNY     82  70  65 CALM      30.01S
MCMINNVILLE    SUNNY     82  72  69 VRB3      30.02R
COLUMBIA       SUNNY     84  73  70 CALM      29.96S HX  91
SHELBYVILLE    SUNNY     81  72  74 CALM      30.00S
$$

TNZ017-018-042-046-047-241700-
NORTHEAST TENNESSEE

CITY           SKY/WX    TMP DP  RH WIND       PRES   REMARKS
TRI CITIES     CLOUDY    78  70  76 SE3       30.02S
ELIZABETHTON   CLOUDY    79  70  73 CALM      30.02S
$$

TNZ012-013-036-069-073-074-241700-
CENTRAL EAST TENNESSEE

CITY           SKY/WX    TMP DP  RH WIND       PRES   REMARKS
KNOXVILLE      PTSUNNY   80  69  69 SW3       30.00S
OAK RIDGE      PTSUNNY   84  69  60 MISG      30.01S
DOWNTOWN KNOXV PTSUNNY   82  73  74 CALM      29.99S
GATLINBURG     MOSUNNY   81  70  69 W5        30.00R
MORRISTOWN     PTSUNNY   79  72  78 W6        30.01S
JACKSBORO      PTSUNNY   81  72  74 CALM      30.04S
$$

TNZ083-085-099-241700-
SOUTHEAST TENNESSEE

CITY           SKY/WX    TMP DP  RH WIND       PRES   REMARKS
CHATTANOOGA    PTSUNNY   84  70  62 NW3       30.00R
DAYTON         SUNNY     84  73  70 SW3       29.99S HX  91
$$

SKY/WX REPORTED AS FAIR MEANS FEW OR NO CLOUDS BELOW
12 THOUSAND FEET.




USA.gov is the U.S. government's official web portal to all federal, state and local government web resources and services.